Back to catalog

STARLINK-5143

AliveCommunicationsVLEO
NORAD 54089·PAYLOAD·🇺🇸 United States

Launched Oct 20, 2022 from Cape Canaveral Space Force Station

Loading…

Next Passes (next 24 hours)

TLE

FreshSource: CelesTrak SupGP

Epoch: Sep 14, 2026, 14:30 UTC

1 54089C 22136AQ  26257.60465278  .00508280  00000+0  21320-1 0  2578
2 54089  53.1609 204.7390 0001149  89.6578 271.3383 15.22711127    12

Track STARLINK-5143 in real time with AllMySat

Download on the App Store